EA1JL Noia ES current weather conditions

sailwx.info

Wind from 355 at 4 knots gusting 10

Air temperature 33.9° C
Dewpoint 21.3° C

Last reported at 2018-Aug-20 16:00 UTC.
Time now 2018-Aug-20 16:21 UTC

Location: N 42°48' W 008°54'.
View on Google Maps.

See reports from other nearby stations

  
Tides and Currents Weather Stations Pressure Air Temp Water Temp Dewpoint Dewpoint Depression Visibility Wind Speed Wind Dir Waves Ship Positions
date/time (UTC)wind fromknots sea level pressurealtimeterstation pressurevisibilityair tempwater tempwave heightnotes
2018-Aug-20 16:00 355 4 gusting 10 33.9
2018-Aug-20 15:45 351 4 gusting 8 34.4
2018-Aug-20 15:30 014 4 gusting 11 34.4
2018-Aug-20 15:15 008 4 gusting 10 33.9
2018-Aug-20 14:45 016 5 gusting 10 33.9
2018-Aug-20 14:30 012 3 gusting 10 33.3
2018-Aug-20 13:45 014 2 gusting 7 32.8
2018-Aug-20 13:30 030 0 gusting 7 32.8
2018-Aug-20 13:00 004 4 gusting 10 31.7
2018-Aug-20 12:45 004 6 gusting 11 31.1
2018-Aug-20 12:30 024 2 gusting 11 31.1
2018-Aug-20 12:15 010 0 gusting 8 31.1
2018-Aug-20 12:00 021 2 gusting 10 30.6
2018-Aug-20 11:30 038 2 gusting 7 29.4
2018-Aug-20 10:45 025 1 gusting 6 27.8
2018-Aug-20 10:30 27.2
2018-Aug-20 10:15 013 1 gusting 8 26.7
2018-Aug-20 09:45 034 0 gusting 8 25.6
2018-Aug-20 09:30 015 1 gusting 7 25.0
2018-Aug-20 08:45 045 23.9